SCP
2 2 2 2 1 1 1 1 1 0 1 1 1 1 1 1 1 1 1 1 1 0
2 2 2 1 2 2 1 1 1 1 1 1 1 1 1 1 1 1 1 1 1 1
2 1 1 1 1 1 1 1 1 1 1 1 1 0 1 1 1 1 1 1 1 1
3 1 1 1 1 2 2 1 1 1 1 1 1 1 1 1 1 1 1 1 1 1
0 2 2 2 2 2 1 1 1 1 1 1 1 1 1 1 1 1 1 1 1 1
0 0 2 3 2 2 2 1 1 1 1 1 1 1 1 1 1 1 1 1 0 0
0 0 0 4 2 2 2 3 3 2 2 2 2 1 1 1 1 1 1 0 0 0
0 0 0 2 4 3 4 4 4 4 3 3 3 3 2 2 1 2 1 0 0 0
0 0 0 1 4 5 5 3 3 3 3 5 5 3 2 2 2 1 0 0 0 0
0 0 0 0 1 3 3 5 5 6 6 4 4 1 0 0 2 0 0 0 0 0
0 0 0 0 1 1 3 3 4 5 5 3 4 0 0 0 1 0 0 0 0 0
0 0 0 0 1 1 2 3 3 4 4 3 3 0 0 0 0 0 0 0 0 0
0 0 0 0 0 1 1 1 2 2 3 2 2 0 0 0 0 0 0 0 0 0
0 0 0 0 0 1 1 1 1 1 1 1 1 0 0 0 0 0 0 0 0 0
Wind_Speed_500mb
92 85 88 87 79 80 83 74 76 83 74 70 69 69 71 69 65 62 59 53 50 45
77 79 74 72 85 80 73 71 70 70 66 65 63 60 63 71 67 63 58 56 52 48
65 70 78 79 81 78 68 63 57 59 62 63 59 57 56 61 63 62 62 60 57 51
51 61 68 85 82 78 72 64 58 54 51 60 62 61 60 58 62 59 58 60 59 59
57 51 67 75 81 81 79 71 64 58 56 52 55 58 59 59 61 61 63 62 58 59
38 54 57 65 72 73 73 74 72 64 58 54 51 45 44 48 55 63 69 68 63 57
23 38 52 54 60 68 70 72 73 67 61 56 51 43 42 46 50 54 61 67 68 70
5 21 40 48 52 54 63 70 67 63 63 56 55 49 50 51 52 54 55 60 63 80
7 10 26 47 47 59 62 65 66 67 65 66 63 59 52 48 52 58 52 64 73 80
19 13 13 21 42 59 66 66 70 68 70 69 69 63 56 52 52 52 57 61 76 89
29 25 19 17 24 49 63 67 70 71 71 70 70 64 61 55 52 49 52 78 93 92
36 34 29 24 22 35 54 62 70 68 70 71 70 68 61 52 56 60 79 87 88 83
40 43 43 37 37 27 34 51 65 69 70 64 66 64 61 53 69 87 81 83 75 70
41 39 47 46 46 38 34 40 51 55 60 62 68 62 58 68 86 89 84 83 66 78
Wind_Direction_500mb
224 225 223 227 224 224 226 224 224 225 225 224 224 223 221 221 223 226 228 227 229 235
235 231 227 226 228 226 226 226 227 226 223 224 223 219 219 218 221 224 228 230 231 232
232 237 234 233 233 233 231 230 230 231 227 228 228 222 221 221 223 225 229 234 231 230
215 230 232 238 236 233 235 234 231 230 232 232 231 230 228 227 230 229 230 235 233 230
217 214 226 233 237 236 235 234 234 231 228 230 231 233 233 232 236 233 233 234 231 226
212 212 231 233 234 236 235 237 237 236 229 233 231 231 230 231 237 238 233 230 223 212
196 201 207 227 231 233 232 233 235 236 236 234 229 229 228 230 236 239 237 232 220 212
222 208 210 209 222 225 225 227 230 231 232 227 226 223 225 231 237 238 235 228 223 211
261 191 202 214 214 222 220 217 217 222 222 224 221 225 229 234 237 242 224 223 216 215
267 220 189 191 213 220 224 220 216 214 218 220 218 225 231 232 232 236 227 225 210 202
254 241 211 210 203 214 218 221 220 219 220 217 219 223 230 232 232 234 233 227 217 202
246 236 229 220 215 219 217 218 225 220 217 218 221 222 228 229 230 220 213 212 209 202
233 232 228 222 233 214 216 220 226 221 222 226 224 224 226 218 210 207 206 206 196 205
232 233 229 227 233 225 220 212 220 221 221 216 222 224 222 212 210 208 202 203 199 197
Wind_Speed_850mb
92 85 88 87 79 80 83 74 76 83 74 70 69 69 71 69 65 62 59 53 50 45
77 79 74 72 85 80 73 71 70 70 66 65 63 60 63 71 67 63 58 56 52 48
65 70 78 79 81 78 68 63 57 59 62 63 59 57 56 61 63 62 62 60 57 51
51 61 68 85 82 78 72 64 58 54 51 60 62 61 60 58 62 59 58 60 59 59
57 51 67 75 81 81 79 71 64 58 56 52 55 58 59 59 61 61 63 62 58 59
38 54 57 65 72 73 73 74 72 64 58 54 51 45 44 48 55 63 69 68 63 57
23 38 52 54 60 68 70 72 73 67 61 56 51 43 42 46 50 54 61 67 68 70
5 21 40 48 52 54 63 70 67 63 63 56 55 49 50 51 52 54 55 60 63 80
7 10 26 47 47 59 62 65 66 67 65 66 63 59 52 48 52 58 52 64 73 80
19 13 13 21 42 59 66 66 70 68 70 69 69 63 56 52 52 52 57 61 76 89
29 25 19 17 24 49 63 67 70 71 71 70 70 64 61 55 52 49 52 78 93 92
36 34 29 24 22 35 54 62 70 68 70 71 70 68 61 52 56 60 79 87 88 83
40 43 43 37 37 27 34 51 65 69 70 64 66 64 61 53 69 87 81 83 75 70
41 39 47 46 46 38 34 40 51 55 60 62 68 62 58 68 86 89 84 83 66 78
Wind_Direction_850mb
224 225 223 227 224 224 226 224 224 225 225 224 224 223 221 221 223 226 228 227 229 235
235 231 227 226 228 226 226 226 227 226 223 224 223 219 219 218 221 224 228 230 231 232
232 237 234 233 233 233 231 230 230 231 227 228 228 222 221 221 223 225 229 234 231 230
215 230 232 238 236 233 235 234 231 230 232 232 231 230 228 227 230 229 230 235 233 230
217 214 226 233 237 236 235 234 234 231 228 230 231 233 233 232 236 233 233 234 231 226
212 212 231 233 234 236 235 237 237 236 229 233 231 231 230 231 237 238 233 230 223 212
196 201 207 227 231 233 232 233 235 236 236 234 229 229 228 230 236 239 237 232 220 212
222 208 210 209 222 225 225 227 230 231 232 227 226 223 225 231 237 238 235 228 223 211
261 191 202 214 214 222 220 217 217 222 222 224 221 225 229 234 237 242 224 223 216 215
267 220 189 191 213 220 224 220 216 214 218 220 218 225 231 232 232 236 227 225 210 202
254 241 211 210 203 214 218 221 220 219 220 217 219 223 230 232 232 234 233 227 217 202
246 236 229 220 215 219 217 218 225 220 217 218 221 222 228 229 230 220 213 212 209 202
233 232 228 222 233 214 216 220 226 221 222 226 224 224 226 218 210 207 206 206 196 205
232 233 229 227 233 225 220 212 220 221 221 216 222 224 222 212 210 208 202 203 199 197